Reflectivity
-20 -20 -20 -20 -20 -20 -20 -20 -20 -20 -20 -20 -20 -20 -20 -20 -20 -20 -20 -20 -20 -20 -20 -20 -20 -20 -20 -20 -20 -20 -20 -20 -20 -20 -20 -20 -20 -20 -20 -20 -20 -20 -20 -20 -20 -20 -20
-20 -20 -20 -20 -20 -20 -20 -20 -20 -20 -20 -20 -20 -20 -20 -20 -20 -20 -20 -20 -20 -20 -20 -20 -20 -20 -20 -20 -20 -20 -20 -20 -20 -20 -20 -20 -20 -20 -20 -20 -20 -20 -20 -20 -20 -20 -20
-20 -20 -20 -20 -20 -20 -20 -20 -20 -20 -20 -20 -20 -20 -20 -20 -20 -20 -20 -20 -20 -20 -20 -20 -20 -20 -20 -20 -20 -20 -20 -20 -20 -20 -20 -20 -20 -20 -20 -20 -20 -20 -20 -20 -20 -20 -20
-20 -20 -20 -20 -20 -20 -20 -20 -20 -20 -20 -20 -20 -20 -20 -20 -20 -20 -20 -20 -20 -20 -20 -20 -20 -20 -20 -20 -20 -20 -20 -20 -20 -20 -20 -20 -20 -20 -20 -20 -20 -20 -20 -20 -20 -20 -20
-20 -20 -20 -20 -20 -20 -20 -20 -20 -20 -20 -20 -20 -20 -20 -20 -20 -20 -20 -20 -20 -20 -20 -20 -20 -20 -20 -20 -20 -20 -20 -20 -20 -20 -20 -20 -20 -20 -20 -20 -20 -20 -20 -20 -20 -20 -20
-20 -20 -20 -20 -20 -20 -20 -20 -20 -20 -20 -20 -20 -20 -20 -20 -20 -20 -20 -20 -20 -20 -20 -20 -20 -20 -20 -20 -20 -20 -20 -20 -20 -20 -20 -20 -20 -20 -20 -20 -20 -20 -20 -20 -20 -20 -20
-20 -20 -20 -20 -20 -20 -20 -20 -20 -20 -20 -20 -20 -20 -20 -20 -20 -20 -20 -20 -20 -20 -20 -20 -20 -20 -20 -20 -20 -20 -20 -20 -20 -20 -20 -20 -20 -20 -20 -20 -20 -20 -20 -20 -20 -20 -20
-20 -20 -20 -20 -20 -20 -20 -20 -20 -20 -20 -20 -20 -20 -20 -20 -20 -20 -20 -20 -20 -20 -20 -20 -20 -20 -20 -20 -20 -20 -20 -20 -20 -20 -20 -20 -20 -20 -20 -20 -20 -20 -20 -20 -20 -20 -20
-20 -20 -20 -20 -20 -20 -20 -20 -20 -20 -20 -20 -20 -20 -20 -20 -20 -20 -20 -20 -20 -20 -20 -20 -20 -20 -20 -20 -20 -20 -20 -20 -20 -20 -20 -20 -20 -20 -20 -20 -20 -20 -20 -20 -20 -20 -20
-20 -20 -20 -20 -20 -20 -20 -20 -20 -20 -20 -20 -20 -20 -20 -20 -20 -20 -20 -20 -20 -20 -20 -20 -20 -20 -20 -20 -20 -20 -20 -20 -20 -20 -20 -20 -20 -20 -20 -20 -20 -20 -20 -20 -20 -20 -20
-20 -20 -20 -20 -20 -20 -20 -20 -20 -20 -20 -20 -20 -20 -20 -20 -20 -20 -20 -20 -20 -20 -20 -20 -20 -20 -20 -20 -20 -20 -20 -20 -20 -20 -20 -20 -20 -20 -20 -20 -20 -20 -20 -20 -20 -20 -20
-20 -20 -20 -20 -20 -20 -20 -20 -20 -20 -20 -20 -20 -20 -20 -20 -20 -20 -20 -20 -20 -20 -20 -20 -20 -20 -20 -20 -20 -20 -20 -20 -20 -20 -20 -20 -20 -20 -20 -20 -20 -20 -20 -20 -20 -20 -20
-20 -20 -20 -20 -20 -20 -20 -20 -20 -20 -20 -20 -20 -20 -20 -20 -20 -20 -20 -20 -20 -20 -20 -20 -20 -20 -20 -20 -20 -20 -20 -20 -20 -20 -20 -20 -20 -20 -20 -20 -20 -20 -20 -20 -20 -20 -20
-20 -20 -20 -20 -20 -20 -20 -20 -20 -20 -20 -20 -20 -20 -20 -20 -20 -20 -20 -20 -20 -20 -20 -20 -20 -20 -20 -20 -20 -20 -20 -20 -20 -20 -20 -20 -20 -20 -20 -20 -20 -20 -20 -20 -20 -20 -20
-20 -20 -20 -20 -20 -20 -20 -20 -20 -20 -20 -20 -20 -20 -20 -20 -20 -20 -20 -20 -20 -20 -20 -20 -20 -20 -20 -20 -20 -20 -20 -20 -20 -20 -20 -20 -20 -20 -20 -20 -20 -20 -20 -20 -20 -20 -20
-20 -20 -20 -20 -20 -20 -20 -20 -20 -20 -20 -20 -20 -20 -20 -20 -20 -20 -20 -20 -20 -20 -20 -20 -20 -20 -20 -20 -20 -20 -20 -20 -20 -20 -20 -20 -20 -20 -20 -20 -20 -20 -20 -20 -20 -20 -20
-20 -20 -20 -20 -20 -20 -20 -20 -20 -20 -20 -20 -20 -20 -20 -20 -20 -20 -20 -20 -20 -20 -20 -20 -20 -20 -20 -20 -20 -20 -20 -20 -20 -20 -20 -20 -20 -20 -20 -20 -20 -20 -20 -20 -20 -20 -8
-20 -20 -20 -20 -20 -20 -20 -20 -20 -20 -20 -20 -20 -20 -20 -20 -20 -20 -20 -20 -20 -20 -20 -20 -20 -20 -20 -20 -20 -20 -20 -20 -20 -20 -20 -20 -20 -20 -20 -20 -20 -20 -20 -20 -20 -19 -20
-20 -20 -20 -20 -20 -20 -20 -20 -20 -20 -20 -20 -20 -20 -20 -20 -20 -20 -20 -20 -20 -20 -20 -20 -20 -20 -20 -20 -20 -20 -20 -20 -20 -20 -20 -20 -20 -20 -20 -20 -20 -20 -20 -20 -20 -20 -20
-20 -20 -4 -14 -20 -20 -20 -20 -20 -20 -20 -20 -20 -20 -20 -20 -20 -20 -20 -20 -20 -20 -20 -20 -20 -20 -20 -20 -20 -20 -20 -20 -20 -20 -20 -20 -20 -20 -20 -20 -20 -20 -20 -20 -20 -20 -20
-20 -20 5 -8 -20 -20 -20 -20 -20 -20 -20 -20 -20 -20 -20 -20 -20 -20 -20 -20 -20 -20 -20 -20 -20 -20 -20 -20 -20 -20 -20 -20 -20 -20 -20 -20 -20 -20 -20 -20 -20 -20 -20 -20 -20 -20 -20
-20 8 7 -20 -20 -20 -20 10 9 -20 -20 -20 -20 -20 -20 -20 -20 -20 -20 -20 -20 -20 -20 -20 -20 -20 -20 -20 -20 -20 -20 -20 -20 -20 -20 -20 -20 -20 -20 -20 -20 -20 -20 -20 -20 -20 -20
-20 -20 -20 -20 -20 -20 3 11 -20 -20 -20 -20 -20 -20 -20 -20 -20 -20 -20 -20 -20 -20 -20 -20 -20 -20 -20 -20 -20 -20 -20 -20 -20 -20 -20 -20 -20 -20 -20 -20 -20 -20 -20 -20 -20 -20 -20
-20 -20 -20 -20 -20 -20 11 11 -20 -20 -20 -20 -20 -20 -20 -20 -20 -20 -20 -20 -20 -20 -20 -20 -20 -20 -20 -20 -20 -20 -20 -20 -20 -20 -20 -20 -20 -20 -20 -20 2 -20 -20 -20 -20 -20 -20
-20 -20 -20 -20 -20 -20 11 4 -20 -20 -20 -20 -20 -20 -20 -9 -20 -20 -20 -20 -20 -20 -20 -20 -20 -20 -20 -20 -20 -20 -20 -20 -20 -20 -20 -20 -20 -20 -20 -18 -20 -20 -20 -20 -20 -20 -20
-20 -20 -20 -20 -20 -20 -20 -20 -20 -20 -20 -20 -20 -20 -20 -20 -20 -20 -20 -20 -20 -20 -20 -20 -20 -20 -20 -20 -20 -20 -20 -20 -20 -20 -20 -20 -20 -20 -20 -15 -10 -20 -20 -20 -20 -20 -20
-20 -20 -20 -20 -20 -20 -20 -20 -20 -20 -20 -20 -20 -20 -20 -20 -20 -20 -20 -20 -20 -20 -20 -20 -20 -20 -20 -20 -20 -20 -20 -20 -20 -20 -20 -20 -18 -20 -20 -20 -20 -20 -20 -20 -20 -20 -20
-20 -20 -20 -20 -20 -20 -20 -20 -20 -20 -20 -20 -20 -20 -20 -20 -20 -20 -20 -20 -20 -20 -20 -20 -20 -20 -20 -20 -20 -20 -20 -20 -20 -20 -20 -20 -20 -20 -20 -18 -16 -20 2 12 -16 -20 -20
-20 -20 -20 -20 -20 -20 -20 -20 -20 -20 -20 -20 -20 -20 -20 -20 -20 -20 -20 -20 -20 -20 -20 -20 -20 -20 -20 -20 -20 -20 -20 -11 -20 -20 -20 -20 -20 -20 -20 -20 -20 -19 -18 -20 -11 -20 -20
Wind_Speed
9 10 11 12 12 13 11 9 7 5 4 5 6 6 7 8 9 9 8 9 9 6 3 4 8 10 1 5 1 7 10 9 8 6 7 6 8 5 4 2 3 3 2 3 5 5 4
8 9 9 11 12 12 13 12 10 9 7 6 5 5 6 7 8 9 9 9 7 4 2 1 7 10 4 3 5 7 8 10 8 6 8 8 4 5 2 4 3 2 3 4 7 5 4
9 9 10 10 10 11 10 10 9 8 7 6 5 5 5 6 7 9 8 7 6 2 1 5 6 3 3 5 2 6 6 4 4 3 5 4 2 8 4 4 3 2 4 7 7 4 4
9 9 10 10 10 11 11 9 8 6 4 3 3 3 4 5 6 7 8 6 5 4 5 3 3 3 5 4 3 6 6 3 7 6 3 6 4 3 1 2 7 3 4 4 7 7 4
8 9 10 10 10 11 11 10 9 7 5 4 4 4 4 4 5 6 6 6 7 8 8 4 1 1 6 4 4 5 6 5 8 6 6 3 1 0 6 4 6 7 4 4 9 5 4
7 8 9 9 10 11 11 12 10 8 8 7 6 4 4 4 4 4 6 2 4 10 2 2 3 3 4 1 3 5 6 5 3 6 9 2 5 4 5 6 1 5 5 6 1 6 5
7 9 10 10 10 12 13 13 11 10 10 9 8 8 7 7 6 9 6 3 7 5 3 2 1 3 2 7 1 4 6 6 4 1 3 4 8 2 4 2 4 1 3 3 4 3 8
6 8 9 10 11 12 13 14 13 12 10 10 10 10 10 8 6 5 3 5 3 4 4 3 2 3 2 1 2 7 4 4 4 3 5 8 3 2 4 5 4 6 3 4 7 6 3
6 8 9 11 12 12 13 14 14 13 11 11 10 10 9 8 6 3 5 2 2 4 2 3 1 1 5 2 2 5 3 3 1 5 4 5 2 2 5 6 7 3 2 4 6 8 3
4 6 9 10 12 13 13 13 15 15 13 11 10 9 9 11 7 0 2 4 4 3 6 2 2 3 3 3 2 3 2 2 5 2 2 1 3 4 6 2 3 4 4 5 6 4 3
3 5 8 10 11 11 12 14 15 15 13 12 10 10 9 7 2 3 2 4 3 5 6 3 1 3 3 3 3 4 4 3 2 4 5 5 2 4 4 3 3 8 7 8 4 4 3
2 3 6 8 10 11 11 14 14 15 14 12 10 8 7 4 3 1 3 3 5 9 1 2 1 1 1 4 4 4 7 7 2 4 3 3 1 3 1 4 1 6 7 5 4 3 4
2 4 7 8 9 10 11 12 14 15 14 13 10 10 3 2 3 3 2 5 6 7 2 2 1 2 3 4 5 5 6 11 5 7 8 7 5 4 2 5 7 8 6 6 8 7 5
2 3 5 6 8 11 12 13 14 14 15 13 9 6 5 1 2 2 4 7 7 4 3 1 1 1 2 2 2 5 4 5 7 6 3 5 8 7 6 2 2 4 5 5 2 0 6
2 4 5 6 7 10 11 12 15 16 15 13 6 3 3 4 3 3 7 7 6 4 3 4 4 3 3 5 3 5 4 3 6 7 5 5 5 5 4 4 3 5 4 1 5 2 4
2 3 5 6 8 10 11 14 17 19 19 8 3 3 3 5 2 5 8 3 2 2 3 4 3 4 3 5 5 4 4 5 3 6 3 3 5 2 6 4 3 3 1 6 5 3 4
5 2 4 6 8 10 12 13 15 19 20 3 4 4 5 4 4 7 5 3 3 1 3 4 4 4 4 3 4 3 3 3 3 5 6 2 2 8 4 3 2 6 4 4 1 4 3
5 3 4 6 7 9 11 12 12 15 21 8 3 4 5 3 6 1 2 2 1 3 5 4 5 4 4 4 4 3 3 3 2 0 2 3 4 4 6 9 2 2 3 6 4 5 4
6 4 2 5 6 8 10 11 11 10 12 2 3 1 4 5 4 3 2 4 4 4 6 4 3 3 3 4 3 4 2 3 3 2 3 0 2 4 9 7 9 4 8 4 3 2 6
6 5 1 4 5 7 9 11 11 10 6 3 4 4 6 6 1 6 4 2 3 4 4 4 2 4 5 5 5 1 6 4 2 1 5 6 3 6 6 6 4 10 15 10 4 3 6
8 7 5 2 5 7 9 10 13 14 12 3 4 2 4 2 6 5 4 1 4 2 2 3 5 6 3 2 4 3 3 5 5 2 1 4 6 4 7 8 5 17 17 16 11 15 6
9 9 7 3 3 6 8 12 14 15 12 5 4 4 4 1 2 5 5 3 2 4 3 3 5 2 6 3 3 2 1 0 5 3 2 3 5 4 12 7 8 19 15 13 14 14 10
9 8 6 5 2 4 7 10 13 15 8 4 2 2 6 5 3 5 3 2 2 5 2 5 5 4 4 1 5 5 5 5 7 6 3 3 4 3 7 5 5 11 9 6 6 7 7
9 7 6 5 3 4 6 9 9 12 8 2 1 4 6 3 3 3 2 3 4 3 5 2 4 5 5 3 3 5 5 4 4 8 8 5 4 2 4 2 5 11 6 7 6 8 6
11 9 7 6 4 2 3 5 7 9 9 4 1 4 4 2 2 4 1 1 3 2 1 2 1 4 6 8 5 7 7 9 6 5 3 5 5 2 1 3 7 12 11 2 2 9 5
11 10 10 8 6 3 1 4 6 7 9 4 2 3 5 7 6 1 1 2 2 0 6 2 4 4 8 5 5 3 3 5 5 6 4 6 5 5 2 4 6 10 5 3 3 7 7
11 10 10 9 7 5 2 2 4 6 9 3 1 2 5 4 4 2 3 5 5 2 3 4 3 3 4 3 3 4 5 2 3 4 4 3 2 3 1 6 10 9 7 1 5 9 5
13 11 10 9 9 7 6 3 1 2 5 3 1 2 5 3 5 1 1 3 1 3 5 4 5 5 4 3 4 4 4 6 1 5 6 6 3 5 3 3 10 0 4 3 8 4 12
13 12 11 10 9 9 8 7 5 3 1 2 2 3 2 4 4 2 3 3 4 7 6 1 5 5 5 5 2 2 4 2 5 6 1 4 9 6 10 10 4 4 12 6 8 16 11
Wind_Direction
352 341 343 337 340 336 340 344 339 331 306 281 266 259 260 255 253 261 267 267 266 276 326 339 315 339 38 359 25 266 299 332 342 22 19 16 36 12 24 13 75 81 244 168 216 208 252
345 343 342 337 342 346 343 349 345 342 336 326 313 291 270 259 253 254 250 250 269 288 320 342 345 318 48 41 259 294 325 339 355 20 355 34 352 259 353 7 98 278 281 266 244 237 265
357 347 347 343 345 340 345 347 343 348 347 331 308 283 267 258 251 251 259 268 258 251 139 42 357 28 69 236 273 329 308 260 325 357 346 324 38 42 319 343 317 301 296 323 270 206 243
356 354 352 350 349 348 348 350 357 359 352 344 328 312 287 269 261 258 250 224 180 112 72 82 5 72 241 281 317 343 339 338 324 330 308 287 36 323 239 304 2 329 52 341 302 141 269
357 352 356 348 350 349 345 4 7 8 14 11 9 351 321 287 272 256 223 134 110 107 106 131 31 26 300 314 4 319 29 327 326 309 327 296 13 273 17 47 15 12 318 345 353 61 350
357 358 355 348 354 352 351 8 12 9 13 10 2 355 5 13 15 343 346 70 115 119 137 196 256 32 335 283 320 354 322 330 317 331 338 62 57 51 27 49 315 305 344 341 313 332 356
1 4 356 351 353 359 360 5 12 18 11 7 1 4 12 21 20 16 28 41 19 355 25 162 269 125 6 313 10 335 308 347 349 36 246 5 67 76 283 297 263 110 21 331 285 264 358
13 7 356 352 358 0 2 0 8 15 11 9 8 3 7 2 6 10 61 79 137 183 348 345 57 45 323 100 333 311 28 53 31 349 351 27 95 252 305 29 41 42 31 316 285 306 328
18 11 359 359 357 360 3 2 4 7 8 6 6 6 0 339 330 47 92 83 49 80 98 311 140 220 258 42 293 288 48 342 8 30 43 128 222 21 63 25 14 326 161 276 252 322 330
25 14 2 2 355 357 358 2 5 3 2 0 1 0 355 325 58 321 61 316 354 102 74 310 299 259 299 182 317 271 322 110 8 37 47 142 355 48 35 67 43 306 243 282 290 38 300
61 23 8 5 356 355 357 359 3 1 359 355 357 353 357 31 164 78 277 317 324 61 64 269 304 226 294 109 234 336 342 37 34 313 70 260 56 61 50 292 297 254 303 276 293 162 87
88 35 15 5 357 352 358 1 357 358 357 352 350 342 336 49 45 280 324 347 56 47 319 18 76 294 103 2 333 47 17 26 28 20 358 255 103 78 240 292 96 284 311 3 30 91 50
102 39 21 6 352 349 3 2 354 353 352 346 344 338 57 90 194 305 12 47 46 96 224 51 98 31 79 346 358 72 61 42 35 21 359 346 3 322 10 11 352 15 31 2 13 12 227
98 47 27 6 347 357 359 358 355 352 345 336 330 346 348 107 312 40 57 52 78 294 20 243 84 24 97 359 352 30 46 37 9 52 53 35 334 14 343 62 301 332 89 131 221 348 281
76 29 18 5 353 6 358 357 356 346 340 329 323 15 25 307 339 70 73 56 183 210 309 352 4 66 35 360 43 90 73 59 35 29 47 15 295 332 36 313 114 327 29 153 106 5 44
119 40 3 4 1 4 0 0 358 348 343 332 77 57 313 293 30 63 74 153 106 27 9 39 78 31 96 354 42 60 70 331 350 22 161 321 305 303 298 350 10 79 247 31 7 30 290
171 95 25 6 0 4 360 3 0 350 348 323 61 51 267 340 61 49 120 185 121 346 108 81 24 63 70 41 38 51 46 324 12 355 70 35 80 292 344 47 29 352 21 17 137 132 213
183 123 40 13 2 359 356 359 5 355 346 48 82 54 288 44 49 10 82 67 306 6 2 73 91 80 73 39 35 71 120 167 250 80 46 334 125 288 282 293 255 134 109 100 95 321 271
174 133 63 2 0 358 355 355 360 8 16 89 83 217 316 80 104 332 342 61 68 48 23 36 63 49 77 53 86 54 86 227 189 122 156 207 351 357 348 347 11 2 298 122 160 116 227
166 148 158 335 355 359 355 353 352 352 2 106 81 41 331 40 88 122 105 97 99 25 41 40 98 59 62 43 23 30 18 348 321 209 149 102 163 166 200 213 194 286 288 303 171 172 245
161 172 185 272 0 5 355 354 352 342 346 118 47 245 188 322 346 85 86 140 123 111 65 46 38 35 132 82 18 37 18 349 335 22 86 113 202 231 234 237 248 267 281 291 279 258 227
166 178 190 222 34 18 12 3 357 344 345 72 114 110 16 57 7 50 13 32 117 77 92 19 93 79 57 105 182 262 335 259 238 260 18 4 268 169 287 246 235 259 274 265 269 276 263
178 188 206 192 129 54 30 11 3 357 6 88 322 43 99 300 33 74 246 30 110 114 35 119 129 92 53 184 195 215 212 210 225 235 160 224 167 96 263 36 13 301 240 212 220 253 261
183 185 204 214 181 83 44 23 14 16 34 118 194 102 82 269 90 184 357 76 86 49 144 133 95 105 228 60 51 11 341 304 260 267 180 179 106 119 256 42 196 249 278 261 274 263 253
186 182 193 217 224 139 61 32 33 20 19 74 9 102 118 154 202 329 11 24 100 14 95 135 45 182 107 44 34 1 340 2 319 38 41 161 129 174 205 216 283 291 273 224 228 268 192
190 189 187 196 219 238 320 22 37 25 13 82 34 94 101 116 254 203 125 64 150 9 353 99 24 85 69 85 73 112 270 249 302 326 71 66 72 126 178 250 271 234 242 245 313 286 202
189 193 191 190 194 214 251 330 31 29 17 73 27 71 90 109 261 154 175 174 158 98 158 311 184 20 67 105 127 174 240 217 249 190 259 349 347 217 195 240 282 255 256 144 74 276 235
182 191 192 188 185 190 198 214 278 35 23 49 265 15 116 123 276 270 248 153 74 99 142 244 43 347 52 103 153 217 181 235 273 228 202 178 179 229 226 238 269 201 24 123 237 262 295
181 182 191 194 187 190 191 191 194 179 25 37 70 342 82 116 230 297 277 251 197 188 148 227 189 174 184 103 214 123 209 200 184 256 263 242 197 211 183 220 219 230 292 239 269 306 302